| time (UTC) | temp F | wind direction | speed knots | gust knots | rain 1hr in | rain 24hr in | rain mn in | humidity % | barometer mb |
| 20260507010045 | 68 | 346 | 4.3 | 10.4 | 0.00 | 0.00 | 0.00 | 72 | 1008.9 |
| 20260507005535 | 68 | 335 | 4.3 | 13.0 | 0.00 | 0.00 | 0.00 | 71 | 1008.6 |
| 20260507005031 | 68 | 5 | 6.1 | 13.0 | 0.00 | 0.00 | 0.00 | 71 | 1008.4 |
| 20260507004530 | 69 | 350 | 4.3 | 11.3 | 0.00 | 0.00 | 0.00 | 71 | 1008.4 |
| 20260507004029 | 69 | 306 | 4.3 | 10.4 | 0.00 | 0.00 | 0.00 | 70 | 1008.2 |
| 20260507003527 | 70 | 40 | 4.3 | 10.4 | 0.00 | 0.00 | 0.00 | 70 | 1008.3 |
| 20260507003026 | 70 | 24 | 3.5 | 11.3 | 0.00 | 0.00 | 0.00 | 69 | 1008.3 |
| 20260507002527 | 71 | 341 | 4.3 | 11.3 | 0.00 | 0.00 | 0.00 | 69 | 1008.3 |
| 20260507002024 | 71 | 319 | 4.3 | 11.3 | 0.00 | 0.00 | 0.00 | 68 | 1008.2 |
| 20260507001528 | 72 | 321 | 4.3 | 11.3 | 0.00 | 0.00 | 0.00 | 68 | 1008.2 |
| 20260507001023 | 72 | 319 | 4.3 | 11.3 | 0.00 | 0.00 | 0.00 | 68 | 1008.0 |
| 20260507000520 | 73 | 360 | 4.3 | 9.6 | 0.00 | 0.00 | 0.00 | 68 | 1007.9 |
| 20260507000019 | 73 | 75 | 3.5 | 9.6 | 0.00 | 0.00 | 0.00 | 68 | 1007.5 |
| 20260506235518 | 73 | 346 | 4.3 | 10.4 | 0.00 | 0.00 | 0.00 | 67 | 1007.6 |
| 20260506235016 | 74 | 145 | 4.3 | 10.4 | 0.00 | 0.00 | 0.00 | 68 | 1007.5 |
| 20260506234522 | 74 | 333 | 3.5 | 13.0 | 0.00 | 0.00 | 0.00 | 67 | 1007.5 |
| 20260506234015 | 74 | 343 | 4.3 | 13.0 | 0.00 | 0.00 | 0.00 | 67 | 1007.5 |
| 20260506233514 | 75 | 330 | 4.3 | 12.2 | 0.00 | 0.00 | 0.00 | 66 | 1007.3 |
| 20260506233014 | 75 | 69 | 4.3 | 12.2 | 0.00 | 0.00 | 0.00 | 66 | 1007.3 |
| 20260506232513 | 76 | 355 | 4.3 | 19.1 | 0.00 | 0.00 | 0.00 | 66 | 1007.2 |
| 20260506232013 | 76 | 331 | 7.0 | 19.1 | 0.00 | 0.00 | 0.00 | 66 | 1007.2 |
| 20260506231512 | 76 | 339 | 4.3 | 12.2 | 0.00 | 0.00 | 0.00 | 66 | 1007.1 |
| 20260506231013 | 77 | 338 | 5.2 | 12.2 | 0.00 | 0.00 | 0.00 | 65 | 1007.0 |
| 20260506230511 | 77 | 59 | 5.2 | 12.2 | 0.00 | 0.00 | 0.00 | 66 | 1007.0 |
| 20260506230011 | 78 | 346 | 5.2 | 15.6 | 0.00 | 0.00 | 0.00 | 66 | 1007.0 |
| 20260506225511 | 78 | 355 | 6.1 | 15.6 | 0.00 | 0.00 | 0.00 | 66 | 1006.9 |
| 20260506225011 | 79 | 14 | 5.2 | 13.0 | 0.00 | 0.00 | 0.00 | 65 | 1006.8 |
| 20260506224511 | 79 | 331 | 3.5 | 13.0 | 0.00 | 0.00 | 0.00 | 65 | 1006.5 |
| 20260506224009 | 80 | 338 | 4.3 | 12.2 | 0.00 | 0.00 | 0.00 | 65 | 1006.5 |
| 20260506223509 | 80 | 328 | 3.5 | 13.9 | 0.00 | 0.00 | 0.00 | 66 | 1006.3 |
| 20260506223010 | 80 | 355 | 6.1 | 13.9 | 0.00 | 0.00 | 0.00 | 66 | 1006.2 |
| 20260506222509 | 80 | 55 | 3.5 | 13.0 | 0.00 | 0.00 | 0.00 | 67 | 1006.1 |
| 20260506222011 | 80 | 22 | 6.1 | 13.0 | 0.00 | 0.00 | 0.00 | 67 | 1006.1 |
| 20260506221508 | 80 | 20 | 5.2 | 12.2 | 0.00 | 0.00 | 0.00 | 68 | 1006.0 |
| 20260506221008 | 80 | 18 | 4.3 | 10.4 | 0.00 | 0.00 | 0.00 | 68 | 1006.2 |
| 20260506220508 | 80 | 355 | 2.6 | 12.2 | 0.00 | 0.00 | 0.00 | 68 | 1006.2 |
| 20260506220015 | 80 | 9 | 5.2 | 12.2 | 0.00 | 0.00 | 0.00 | 68 | 1006.0 |
| 20260506215509 | 81 | 340 | 6.1 | 11.3 | 0.00 | 0.00 | 0.00 | 67 | 1006.1 |
| 20260506215007 | 81 | 360 | 3.5 | 11.3 | 0.00 | 0.00 | 0.00 | 67 | 1006.1 |
| 20260506214509 | 83 | 326 | 4.3 | 10.4 | 0.00 | 0.00 | 0.00 | 67 | 1006.2 |
| 20260506214007 | 83 | 342 | 4.3 | 8.7 | 0.00 | 0.00 | 0.00 | 68 | 1006.1 |
| 20260506213506 | 83 | 86 | 4.3 | 9.6 | 0.00 | 0.00 | 0.00 | 68 | 1006.0 |
| 20260506213008 | 84 | 117 | 5.2 | 9.6 | 0.00 | 0.00 | 0.00 | 68 | 1005.9 |
| 20260506212506 | 84 | 138 | 4.3 | 9.6 | 0.00 | 0.00 | 0.00 | 68 | 1005.8 |
| 20260506212007 | 85 | 78 | 3.5 | 9.6 | 0.00 | 0.00 | 0.00 | 67 | 1005.9 |
| 20260506211509 | 85 | 82 | 3.5 | 7.8 | 0.00 | 0.00 | 0.00 | 66 | 1005.9 |
| 20260506211006 | 86 | 101 | 3.5 | 8.7 | 0.00 | 0.00 | 0.00 | 65 | 1005.9 |
| 20260506210508 | 86 | 96 | 4.3 | 8.7 | 0.00 | 0.00 | 0.00 | 65 | 1006.0 |
| 20260506210011 | 86 | 86 | 2.6 | 7.8 | 0.00 | 0.00 | 0.00 | 65 | 1006.1 |
| 20260506205505 | 86 | 26 | 3.5 | 7.8 | 0.00 | 0.00 | 0.00 | 64 | 1006.0 |
| 20260506205010 | 88 | 49 | 1.7 | 7.0 | 0.00 | 0.00 | 0.00 | 62 | 1005.9 |
| 20260506204506 | 86 | 67 | 0.0 | 8.7 | 0.00 | 0.00 | 0.00 | 66 | 1006.0 |
| 20260506204005 | 86 | 105 | 3.5 | 8.7 | 0.00 | 0.00 | 0.00 | 65 | 1006.2 |
| 20260506203504 | 86 | 117 | 1.7 | 7.0 | 0.00 | 0.00 | 0.00 | 65 | 1006.3 |
| 20260506203003 | 87 | 83 | 1.7 | 7.0 | 0.00 | 0.00 | 0.00 | 64 | 1006.3 |
| 20260506202506 | 87 | 24 | 0.0 | 4.3 | 0.00 | 0.00 | 0.00 | 63 | 1006.4 |
| 20260506202003 | 87 | 30 | 0.9 | 5.2 | 0.00 | 0.00 | 0.00 | 63 | 1006.5 |
| 20260506201502 | 87 | 30 | 0.0 | 4.3 | 0.00 | 0.00 | 0.00 | 64 | 1006.6 |
| 20260506201004 | 86 | 321 | 0.9 | 4.3 | 0.00 | 0.00 | 0.00 | 66 | 1006.5 |
| 20260506200501 | 85 | 42 | 1.7 | 4.3 | 0.00 | 0.00 | 0.00 | 66 | 1006.5 |
| 20260506200004 | 85 | 75 | 0.9 | 5.2 | 0.00 | 0.00 | 0.00 | 66 | 1006.4 |
| 20260506195501 | 86 | 70 | 2.6 | 5.2 | 0.00 | 0.00 | 0.00 | 65 | 1006.4 |
| 20260506195002 | 86 | 86 | 1.7 | 5.2 | 0.00 | 0.00 | 0.00 | 66 | 1006.5 |
| 20260506194503 | 87 | 17 | 0.9 | 3.5 | 0.00 | 0.00 | 0.00 | 65 | 1006.5 |
| 20260506194103 | 86 | 175 | 0.9 | 4.3 | 0.00 | 0.00 | 0.00 | 66 | 1006.5 |
| 20260506193558 | 86 | 28 | 2.6 | 4.3 | 0.00 | 0.00 | 0.00 | 65 | 1006.6 |
| 20260506193058 | 85 | 92 | 0.0 | 4.3 | 0.00 | 0.00 | 0.00 | 67 | 1006.5 |
| 20260506192557 | 84 | 173 | 1.7 | 5.2 | 0.00 | 0.00 | 0.00 | 68 | 1006.6 |
| 20260506192057 | 85 | 95 | 1.7 | 5.2 | 0.00 | 0.00 | 0.00 | 67 | 1006.8 |
| 20260506191557 | 85 | 94 | 0.9 | 4.3 | 0.00 | 0.00 | 0.00 | 66 | 1006.8 |
| 20260506191056 | 84 | 324 | 1.7 | 5.2 | 0.00 | 0.00 | 0.00 | 69 | 1006.7 |
| 20260506190557 | 84 | 83 | 2.6 | 5.2 | 0.00 | 0.00 | 0.00 | 68 | 1006.8 |
| 20260506190057 | 83 | 76 | 1.7 | 4.3 | 0.00 | 0.00 | 0.00 | 69 | 1006.9 |
| 20260506185556 | 84 | 151 | 0.9 | 5.2 | 0.00 | 0.00 | 0.00 | 71 | 1006.9 |
| 20260506185053 | 82 | 59 | 1.7 | 5.2 | 0.00 | 0.00 | 0.00 | 72 | 1006.9 |
| 20260506184556 | 82 | 22 | 0.9 | 4.3 | 0.00 | 0.00 | 0.00 | 73 | 1007.0 |
| 20260506184052 | 83 | 73 | 1.7 | 4.3 | 0.00 | 0.00 | 0.00 | 71 | 1007.1 |
| 20260506183552 | 83 | 221 | 0.0 | 5.2 | 0.00 | 0.00 | 0.00 | 72 | 1007.2 |
| 20260506183051 | 83 | 98 | 0.0 | 4.3 | 0.00 | 0.00 | 0.00 | 73 | 1007.2 |
| 20260506182549 | 81 | 53 | 1.7 | 4.3 | 0.00 | 0.00 | 0.00 | 75 | 1007.5 |
| 20260506182048 | 80 | 74 | 1.7 | 5.2 | 0.00 | 0.00 | 0.00 | 76 | 1007.6 |
| 20260506181547 | 80 | 51 | 1.7 | 5.2 | 0.00 | 0.00 | 0.00 | 76 | 1007.7 |
| 20260506181046 | 80 | 355 | 1.7 | 7.0 | 0.00 | 0.00 | 0.00 | 76 | 1007.7 |
| 20260506180546 | 80 | 35 | 1.7 | 7.0 | 0.00 | 0.00 | 0.00 | 77 | 1007.6 |
| 20260506180047 | 80 | 360 | 1.7 | 5.2 | 0.00 | 0.00 | 0.00 | 77 | 1007.6 |
| 20260506175547 | 79 | 39 | 1.7 | 3.5 | 0.00 | 0.00 | 0.00 | 77 | 1007.7 |
| 20260506175046 | 79 | 53 | 0.9 | 7.0 | 0.00 | 0.00 | 0.00 | 77 | 1007.7 |
| 20260506174548 | 79 | 24 | 2.6 | 7.0 | 0.00 | 0.00 | 0.00 | 77 | 1007.8 |
| 20260506174045 | 79 | 40 | 2.6 | 5.2 | 0.00 | 0.00 | 0.00 | 77 | 1007.8 |
| 20260506173547 | 79 | 67 | 1.7 | 5.2 | 0.00 | 0.00 | 0.00 | 77 | 1007.9 |
| 20260506173056 | 79 | 36 | 2.6 | 7.8 | 0.00 | 0.00 | 0.00 | 76 | 1007.9 |
| 20260506172545 | 80 | 52 | 1.7 | 6.1 | 0.00 | 0.00 | 0.00 | 76 | 1007.9 |
| 20260506172046 | 80 | 74 | 2.6 | 7.0 | 0.00 | 0.00 | 0.00 | 75 | 1008.0 |
| 20260506171551 | 80 | 328 | 1.7 | 7.8 | 0.00 | 0.00 | 0.00 | 76 | 1008.0 |
| 20260506171046 | 80 | 42 | 3.5 | 7.8 | 0.00 | 0.00 | 0.00 | 76 | 1008.0 |
| 20260506170542 | 80 | 60 | 1.7 | 7.0 | 0.00 | 0.00 | 0.00 | 77 | 1008.0 |
| 20260506170042 | 79 | 80 | 2.6 | 7.0 | 0.00 | 0.00 | 0.00 | 77 | 1007.9 |
| 20260506165543 | 79 | 78 | 2.6 | 6.1 | 0.00 | 0.00 | 0.00 | 78 | 1008.0 |
| 20260506165040 | 79 | 95 | 0.9 | 5.2 | 0.00 | 0.00 | 0.00 | 79 | 1008.1 |
| 20260506164552 | 79 | 96 | 2.6 | 4.3 | 0.00 | 0.00 | 0.00 | 78 | 1008.0 |
| 20260506164038 | 79 | 58 | 1.7 | 4.3 | 0.00 | 0.00 | 0.00 | 80 | 1007.9 |
| 20260506163537 | 78 | 344 | 1.7 | 4.3 | 0.00 | 0.00 | 0.00 | 79 | 1008.0 |
| 20260506163038 | 78 | 19 | 1.7 | 4.3 | 0.00 | 0.00 | 0.00 | 80 | 1008.0 |
| 20260506162535 | 78 | 70 | 1.7 | 5.2 | 0.00 | 0.00 | 0.00 | 81 | 1008.0 |
| 20260506162034 | 78 | 336 | 1.7 | 5.2 | 0.00 | 0.00 | 0.00 | 81 | 1008.1 |
| 20260506161534 | 78 | 19 | 1.7 | 4.3 | 0.00 | 0.00 | 0.00 | 82 | 1008.1 |
| 20260506161032 | 77 | 333 | 0.9 | 5.2 | 0.00 | 0.00 | 0.00 | 83 | 1008.0 |
| 20260506160531 | 77 | 342 | 2.6 | 5.2 | 0.00 | 0.00 | 0.00 | 83 | 1008.0 |
| 20260506160030 | 77 | 30 | 0.9 | 4.3 | 0.00 | 0.00 | 0.00 | 83 | 1008.0 |
| 20260506155528 | 76 | 46 | 2.6 | 3.5 | 0.00 | 0.00 | 0.00 | 83 | 1007.9 |
| 20260506155027 | 76 | 12 | 0.9 | 2.6 | 0.00 | 0.00 | 0.00 | 84 | 1007.8 |
| 20260506154525 | 76 | 50 | 0.9 | 4.3 | 0.00 | 0.00 | 0.00 | 84 | 1007.7 |
| 20260506154024 | 76 | 66 | 1.7 | 4.3 | 0.00 | 0.00 | 0.00 | 84 | 1007.5 |
| 20260506153524 | 76 | 355 | 0.0 | 2.6 | 0.00 | 0.00 | 0.00 | 85 | 1007.6 |
| 20260506153022 | 76 | 355 | 0.0 | 2.6 | 0.00 | 0.00 | 0.00 | 85 | 1007.5 |
| 20260506152522 | 76 | 355 | 0.9 | 2.6 | 0.00 | 0.00 | 0.00 | 85 | 1007.5 |
| 20260506152022 | 76 | 61 | 0.9 | 2.6 | 0.00 | 0.00 | 0.00 | 85 | 1007.3 |
| 20260506151521 | 75 | 68 | 0.0 | 2.6 | 0.00 | 0.00 | 0.00 | 85 | 1007.2 |
| 20260506151019 | 75 | 88 | 0.9 | 2.6 | 0.00 | 0.00 | 0.00 | 85 | 1007.1 |
| 20260506150521 | 75 | 42 | 0.9 | 2.6 | 0.00 | 0.00 | 0.00 | 85 | 1007.2 |
| 20260506150018 | 75 | 42 | 0.0 | 2.6 | 0.00 | 0.00 | 0.00 | 85 | 1007.2 |
| 20260506145519 | 75 | 82 | 0.9 | 2.6 | 0.00 | 0.00 | 0.00 | 85 | 1007.2 |
| 20260506145018 | 75 | 30 | 0.0 | 2.6 | 0.00 | 0.00 | 0.00 | 85 | 1007.1 |
| 20260506144517 | 75 | 32 | 0.9 | 2.6 | 0.00 | 0.00 | 0.00 | 85 | 1007.0 |
| 20260506144015 | 75 | 86 | 0.9 | 2.6 | 0.00 | 0.00 | 0.00 | 85 | 1006.9 |
| 20260506143515 | 75 | 86 | 0.0 | 3.5 | 0.00 | 0.00 | 0.00 | 85 | 1006.8 |
| 20260506143015 | 75 | 86 | 0.9 | 3.5 | 0.00 | 0.00 | 0.00 | 85 | 1006.7 |
| 20260506142514 | 75 | 86 | 0.0 | 2.6 | 0.00 | 0.00 | 0.00 | 85 | 1006.6 |
| 20260506142013 | 75 | 69 | 0.9 | 2.6 | 0.00 | 0.00 | 0.00 | 85 | 1006.7 |
| 20260506141512 | 75 | 71 | 0.0 | 2.6 | 0.00 | 0.00 | 0.00 | 85 | 1006.5 |
| 20260506141014 | 75 | 115 | 0.0 | 2.6 | 0.00 | 0.00 | 0.00 | 85 | 1006.5 |
| 20260506140512 | 75 | 76 | 0.9 | 2.6 | 0.00 | 0.00 | 0.00 | 85 | 1006.4 |
| 20260506140011 | 75 | 190 | 0.0 | 4.3 | 0.00 | 0.00 | 0.00 | 85 | 1006.4 |
| 20260506135510 | 75 | 65 | 0.0 | 3.5 | 0.00 | 0.00 | 0.00 | 85 | 1006.2 |
| 20260506135008 | 75 | 61 | 0.0 | 2.6 | 0.00 | 0.00 | 0.00 | 85 | 1006.1 |
| 20260506134508 | 75 | 167 | 0.0 | 3.5 | 0.00 | 0.00 | 0.00 | 85 | 1006.0 |
| 20260506134007 | 75 | 126 | 0.0 | 4.3 | 0.00 | 0.00 | 0.00 | 85 | 1005.9 |
| 20260506133507 | 75 | 69 | 0.0 | 4.3 | 0.00 | 0.00 | 0.00 | 85 | 1005.8 |
| 20260506133008 | 75 | 65 | 0.9 | 5.2 | 0.00 | 0.00 | 0.00 | 85 | 1005.9 |
| 20260506132506 | 75 | 100 | 0.9 | 5.2 | 0.00 | 0.00 | 0.00 | 85 | 1005.8 |
| 20260506132010 | 75 | 98 | 0.9 | 5.2 | 0.00 | 0.00 | 0.00 | 85 | 1005.7 |
| 20260506131505 | 75 | 71 | 0.0 | 3.5 | 0.00 | 0.00 | 0.00 | 85 | 1005.8 |
| 20260506131005 | 75 | 98 | 0.0 | 3.5 | 0.00 | 0.00 | 0.00 | 85 | 1005.7 |
| 20260506130505 | 75 | 79 | 0.9 | 3.5 | 0.00 | 0.00 | 0.00 | 85 | 1005.7 |
| 20260506130012 | 75 | 65 | 0.0 | 3.5 | 0.00 | 0.00 | 0.00 | 85 | 1005.7 |
| 20260506125504 | 75 | 63 | 0.0 | 3.5 | 0.00 | 0.00 | 0.00 | 85 | 1005.7 |
| 20260506125004 | 75 | 82 | 0.0 | 3.5 | 0.00 | 0.00 | 0.00 | 85 | 1005.7 |
| 20260506124503 | 74 | 57 | 0.0 | 1.7 | 0.00 | 0.00 | 0.00 | 85 | 1005.8 |
| 20260506124002 | 74 | 57 | 0.0 | 2.6 | 0.00 | 0.00 | 0.00 | 85 | 1005.8 |
| 20260506123503 | 74 | 34 | 0.0 | 2.6 | 0.00 | 0.00 | 0.00 | 85 | 1005.9 |
| 20260506123002 | 74 | 152 | 0.0 | 1.7 | 0.00 | 0.00 | 0.00 | 85 | 1005.8 |
| 20260506122502 | 74 | 152 | 0.0 | 2.6 | 0.00 | 0.00 | 0.00 | 85 | 1005.8 |
| 20260506122059 | 74 | 77 | 0.0 | 2.6 | 0.00 | 0.00 | 0.00 | 85 | 1005.7 |
| 20260506121613 | 74 | 77 | 0.0 | 1.7 | 0.00 | 0.00 | 0.00 | 85 | 1005.6 |
| 20260506121059 | 74 | 77 | 0.0 | 1.7 | 0.00 | 0.00 | 0.00 | 85 | 1005.6 |
| 20260506120558 | 74 | 77 | 0.0 | 1.7 | 0.00 | 0.00 | 0.00 | 85 | 1005.5 |
| 20260506120119 | 74 | 77 | 0.0 | 2.6 | 0.00 | 0.00 | 0.00 | 85 | 1005.6 |
| 20260506115557 | 74 | 77 | 0.0 | 2.6 | 0.00 | 0.00 | 0.00 | 85 | 1005.5 |
| 20260506115057 | 74 | 134 | 0.0 | 3.5 | 0.00 | 0.00 | 0.00 | 85 | 1005.6 |
| 20260506114557 | 74 | 69 | 0.9 | 3.5 | 0.00 | 0.00 | 0.00 | 84 | 1005.5 |
| 20260506114055 | 74 | 60 | 0.0 | 1.7 | 0.00 | 0.00 | 0.00 | 84 | 1005.5 |
| 20260506113555 | 74 | 60 | 0.0 | 1.7 | 0.00 | 0.00 | 0.00 | 84 | 1005.5 |
| 20260506113103 | 74 | 190 | 0.0 | 1.7 | 0.00 | 0.00 | 0.00 | 84 | 1005.5 |
| 20260506112555 | 74 | 190 | 0.0 | 1.7 | 0.00 | 0.00 | 0.00 | 84 | 1005.5 |
| 20260506112054 | 74 | 190 | 0.0 | 1.7 | 0.00 | 0.00 | 0.00 | 84 | 1005.5 |
| 20260506111555 | 74 | 190 | 0.0 | 1.7 | 0.00 | 0.00 | 0.00 | 84 | 1005.5 |
| 20260506111054 | 74 | 190 | 0.0 | 0.0 | 0.00 | 0.00 | 0.00 | 84 | 1005.5 |
| 20260506110556 | 74 | 190 | 0.0 | 0.9 | 0.00 | 0.00 | 0.00 | 84 | 1005.5 |
| 20260506110055 | 74 | 190 | 0.0 | 0.9 | 0.00 | 0.00 | 0.00 | 84 | 1005.5 |
| 20260506105554 | 74 | 190 | 0.0 | 0.0 | 0.00 | 0.00 | 0.00 | 84 | 1005.5 |
| 20260506105054 | 74 | 190 | 0.0 | 0.0 | 0.00 | 0.00 | 0.00 | 84 | 1005.3 |
| 20260506104554 | 75 | 190 | 0.0 | 1.7 | 0.00 | 0.00 | 0.00 | 84 | 1005.3 |
| 20260506104052 | 75 | 190 | 0.0 | 2.6 | 0.00 | 0.00 | 0.00 | 83 | 1005.2 |
| 20260506103552 | 75 | 190 | 0.0 | 1.7 | 0.00 | 0.00 | 0.00 | 83 | 1005.3 |
| 20260506103054 | 75 | 190 | 0.0 | 2.6 | 0.00 | 0.00 | 0.00 | 83 | 1005.3 |
| 20260506102552 | 75 | 190 | 0.9 | 2.6 | 0.00 | 0.00 | 0.00 | 83 | 1005.3 |
| 20260506102054 | 75 | 190 | 0.0 | 2.6 | 0.00 | 0.00 | 0.00 | 83 | 1005.3 |
| 20260506101552 | 75 | 190 | 0.0 | 2.6 | 0.00 | 0.00 | 0.00 | 83 | 1005.2 |
| 20260506101050 | 75 | 190 | 0.9 | 4.3 | 0.00 | 0.00 | 0.00 | 83 | 1005.3 |
| 20260506100550 | 75 | 155 | 1.7 | 4.3 | 0.00 | 0.00 | 0.00 | 83 | 1005.2 |
| 20260506100050 | 75 | 173 | 0.9 | 5.2 | 0.00 | 0.00 | 0.00 | 83 | 1005.1 |
| 20260506095550 | 75 | 176 | 1.7 | 7.8 | 0.00 | 0.00 | 0.00 | 83 | 1005.1 |
| 20260506095051 | 75 | 150 | 0.9 | 7.8 | 0.00 | 0.00 | 0.00 | 82 | 1005.3 |
| 20260506094550 | 75 | 137 | 1.7 | 4.3 | 0.00 | 0.00 | 0.00 | 82 | 1005.2 |
| 20260506094048 | 75 | 154 | 0.9 | 6.1 | 0.00 | 0.00 | 0.00 | 82 | 1005.2 |
| 20260506093548 | 75 | 108 | 2.6 | 6.1 | 0.00 | 0.00 | 0.00 | 82 | 1005.1 |
| 20260506093051 | 75 | 162 | 0.9 | 4.3 | 0.00 | 0.00 | 0.00 | 82 | 1005.1 |
| 20260506092548 | 75 | 122 | 0.0 | 7.0 | 0.00 | 0.00 | 0.00 | 82 | 1005.1 |
| 20260506092048 | 75 | 168 | 1.7 | 7.0 | 0.00 | 0.00 | 0.00 | 82 | 1005.0 |
| 20260506091548 | 75 | 154 | 2.6 | 7.0 | 0.00 | 0.00 | 0.00 | 82 | 1005.0 |
| 20260506091047 | 75 | 165 | 1.7 | 6.1 | 0.00 | 0.00 | 0.00 | 82 | 1005.0 |
| 20260506090546 | 75 | 185 | 3.5 | 7.0 | 0.00 | 0.00 | 0.00 | 82 | 1005.1 |
| 20260506090047 | 75 | 176 | 1.7 | 7.0 | 0.00 | 0.00 | 0.00 | 82 | 1005.2 |
| 20260506085546 | 76 | 164 | 2.6 | 7.8 | 0.00 | 0.00 | 0.00 | 82 | 1005.1 |
| 20260506085046 | 76 | 169 | 2.6 | 6.1 | 0.00 | 0.00 | 0.00 | 82 | 1005.1 |
| 20260506084545 | 76 | 187 | 2.6 | 7.8 | 0.00 | 0.00 | 0.00 | 81 | 1005.2 |
| 20260506084044 | 76 | 174 | 3.5 | 7.8 | 0.00 | 0.00 | 0.00 | 81 | 1005.2 |
| 20260506083544 | 76 | 179 | 3.5 | 7.0 | 0.00 | 0.00 | 0.00 | 81 | 1005.2 |
| 20260506083046 | 76 | 140 | 1.7 | 7.0 | 0.00 | 0.00 | 0.00 | 81 | 1005.3 |
| 20260506082545 | 76 | 184 | 3.5 | 7.0 | 0.00 | 0.00 | 0.00 | 81 | 1005.3 |
| 20260506082043 | 76 | 141 | 1.7 | 6.1 | 0.00 | 0.00 | 0.00 | 81 | 1005.3 |
| 20260506081548 | 76 | 155 | 2.6 | 7.8 | 0.00 | 0.00 | 0.00 | 81 | 1005.4 |
| 20260506081042 | 76 | 167 | 1.7 | 7.8 | 0.00 | 0.00 | 0.00 | 81 | 1005.4 |
| 20260506080545 | 76 | 172 | 0.9 | 7.8 | 0.00 | 0.00 | 0.00 | 81 | 1005.3 |
| 20260506073039 | 76 | 133 | 0.0 | 6.1 | 0.00 | 0.00 | 0.00 | 81 | 1005.6 |
| 20260506072538 | 76 | 161 | 0.9 | 6.1 | 0.00 | 0.00 | 0.00 | 81 | 1005.7 |
| 20260506072038 | 76 | 161 | 1.7 | 7.0 | 0.00 | 0.00 | 0.00 | 81 | 1005.9 |
| 20260506071548 | 76 | 190 | 1.7 | 7.0 | 0.00 | 0.00 | 0.00 | 81 | 1005.7 |
| 20260506071038 | 76 | 157 | 1.7 | 8.7 | 0.00 | 0.00 | 0.00 | 81 | 1005.7 |
| 20260506070538 | 76 | 172 | 3.5 | 8.7 | 0.00 | 0.00 | 0.00 | 81 | 1005.7 |
| 20260506062034 | 76 | 252 | 1.7 | 7.0 | 0.00 | 0.00 | 0.00 | 82 | 1005.7 |
| 20260506061536 | 76 | 151 | 1.7 | 4.3 | 0.00 | 0.00 | 0.00 | 82 | 1005.8 |
| 20260506061034 | 76 | 165 | 0.9 | 6.1 | 0.00 | 0.00 | 0.00 | 82 | 1005.9 |
| 20260506060534 | 76 | 166 | 2.6 | 6.1 | 0.00 | 0.00 | 0.00 | 82 | 1005.9 |
| 20260506051028 | 76 | 138 | 0.9 | 5.2 | 0.00 | 0.00 | 0.00 | 81 | 1005.7 |
| 20260506050527 | 76 | 179 | 1.7 | 7.8 | 0.00 | 0.00 | 0.00 | 81 | 1005.7 |
| 20260506045026 | 76 | 117 | 2.6 | 6.1 | 0.00 | 0.00 | 0.00 | 81 | 1005.8 |
| 20260506044535 | 76 | 136 | 2.6 | 5.2 | 0.00 | 0.00 | 0.00 | 81 | 1005.8 |
| 20260506044024 | 77 | 108 | 0.9 | 3.5 | 0.00 | 0.00 | 0.00 | 81 | 1005.8 |
| 20260506043527 | 77 | 108 | 1.7 | 6.1 | 0.00 | 0.00 | 0.00 | 81 | 1005.8 |
| 20260506043027 | 77 | 113 | 1.7 | 6.1 | 0.00 | 0.00 | 0.00 | 81 | 1005.7 |
| 20260506042524 | 77 | 144 | 1.7 | 7.0 | 0.00 | 0.00 | 0.00 | 81 | 1005.8 |
| 20260506042023 | 77 | 46 | 0.9 | 7.8 | 0.00 | 0.00 | 0.00 | 81 | 1005.7 |
| 20260506041525 | 77 | 126 | 1.7 | 7.8 | 0.00 | 0.00 | 0.00 | 80 | 1005.6 |
| 20260506041023 | 77 | 182 | 0.9 | 4.3 | 0.00 | 0.00 | 0.00 | 80 | 1005.5 |
| 20260506040523 | 77 | 135 | 1.7 | 7.8 | 0.00 | 0.00 | 0.00 | 80 | 1005.4 |
| 20260506040023 | 77 | 152 | 2.6 | 7.8 | 0.00 | 0.00 | 0.00 | 80 | 1005.4 |
| 20260506035523 | 77 | 157 | 0.9 | 5.2 | 0.00 | 0.00 | 0.00 | 80 | 1005.3 |
| 20260506035023 | 77 | 151 | 0.9 | 6.1 | 0.00 | 0.00 | 0.00 | 79 | 1005.1 |
| 20260506034523 | 78 | 128 | 1.7 | 8.7 | 0.00 | 0.00 | 0.00 | 79 | 1005.1 |
| 20260506034022 | 78 | 132 | 2.6 | 9.6 | 0.00 | 0.00 | 0.00 | 79 | 1005.0 |
| 20260506033522 | 78 | 170 | 3.5 | 9.6 | 0.00 | 0.00 | 0.00 | 79 | 1005.0 |
| 20260506033022 | 78 | 145 | 1.7 | 8.7 | 0.00 | 0.00 | 0.00 | 78 | 1005.0 |
| 20260506032522 | 78 | 155 | 1.7 | 8.7 | 0.00 | 0.00 | 0.00 | 78 | 1004.9 |
| 20260506032022 | 78 | 153 | 2.6 | 7.0 | 0.00 | 0.00 | 0.00 | 78 | 1004.9 |
| 20260506031524 | 78 | 169 | 0.9 | 3.5 | 0.00 | 0.00 | 0.00 | 78 | 1005.1 |
| 20260506031022 | 78 | 38 | 0.9 | 7.0 | 0.00 | 0.00 | 0.00 | 78 | 1004.9 |
| 20260506030521 | 78 | 157 | 2.6 | 9.6 | 0.00 | 0.00 | 0.00 | 77 | 1004.8 |
| 20260506030022 | 79 | 123 | 2.6 | 7.0 | 0.00 | 0.00 | 0.00 | 77 | 1004.7 |
| 20260506025525 | 79 | 94 | 0.9 | 10.4 | 0.00 | 0.00 | 0.00 | 77 | 1004.7 |
| 20260506025021 | 79 | 165 | 3.5 | 10.4 | 0.00 | 0.00 | 0.00 | 76 | 1004.5 |
| 20260506024530 | 80 | 135 | 1.7 | 5.2 | 0.00 | 0.00 | 0.00 | 76 | 1004.4 |
| 20260506024020 | 80 | 135 | 1.7 | 4.3 | 0.00 | 0.00 | 0.00 | 76 | 1004.4 |
| 20260506023520 | 80 | 97 | 0.0 | 4.3 | 0.00 | 0.00 | 0.00 | 76 | 1004.5 |
| 20260506023020 | 80 | 157 | 1.7 | 4.3 | 0.00 | 0.00 | 0.00 | 75 | 1004.4 |
| 20260506022520 | 80 | 132 | 0.9 | 4.3 | 0.00 | 0.00 | 0.00 | 75 | 1004.4 |
| 20260506022020 | 80 | 143 | 0.9 | 4.3 | 0.00 | 0.00 | 0.00 | 75 | 1004.3 |
| 20260506021520 | 80 | 105 | 0.0 | 8.7 | 0.00 | 0.00 | 0.00 | 75 | 1004.3 |
| 20260506021020 | 81 | 113 | 1.7 | 8.7 | 0.00 | 0.00 | 0.00 | 75 | 1004.0 |
| 20260506020523 | 81 | 85 | 0.9 | 8.7 | 0.00 | 0.00 | 0.00 | 74 | 1003.9 |
| 20260506020019 | 81 | 117 | 2.6 | 8.7 | 0.00 | 0.00 | 0.00 | 74 | 1003.8 |
| 20260506015521 | 81 | 126 | 1.7 | 10.4 | 0.00 | 0.00 | 0.00 | 73 | 1003.7 |
| 20260506015019 | 82 | 95 | 2.6 | 10.4 | 0.00 | 0.00 | 0.00 | 73 | 1003.8 |
| 20260506014519 | 82 | 119 | 1.7 | 8.7 | 0.00 | 0.00 | 0.00 | 72 | 1003.7 |
| 20260506014018 | 82 | 70 | 0.9 | 8.7 | 0.00 | 0.00 | 0.00 | 72 | 1003.7 |
| 20260506013518 | 82 | 46 | 1.7 | 8.7 | 0.00 | 0.00 | 0.00 | 71 | 1003.6 |
| 20260506013022 | 83 | 92 | 1.7 | 7.0 | 0.00 | 0.00 | 0.00 | 71 | 1003.5 |
| 20260506012518 | 83 | 88 | 0.9 | 5.2 | 0.00 | 0.00 | 0.00 | 70 | 1003.4 |
| 20260506012017 | 83 | 167 | 1.7 | 5.2 | 0.00 | 0.00 | 0.00 | 70 | 1003.4 |
| 20260506011517 | 83 | 88 | 0.9 | 8.7 | 0.00 | 0.00 | 0.00 | 69 | 1003.3 |
| 20260506011018 | 83 | 71 | 2.6 | 8.7 | 0.00 | 0.00 | 0.00 | 69 | 1003.2 |
| 20260506010516 | 84 | 81 | 2.6 | 6.1 | 0.00 | 0.00 | 0.00 | 68 | 1003.1 |